Find Starlink 11701

NORAD ID: 63760 Int'l Des: 2025-089 Owner: SPXS Country: US Constellation: starlink operational
LEOCIRCULAR

实时位置

正在加载3D地球...

关于 Starlink 11701

正在加载描述...

即将过境

Passes for default location (London). Set your location on the main map for personalized predictions.

高度历史

Loading altitude history...

两行轨道根数

1 63760U 25089K 26127.46701325 .00149762 00000-0 11448-2 0 9991
2 63760 42.9999 297.5940 0002437 247.5005 112.5605 15.70940366 59387
Epoch: May 7, 2026 • Age: 20 hours

当前状态

高度 358.8 km
速度 7.70 km/s
星下点 38.39°N, 75.73°E
发射日期 Apr 29, 2025
运行时间 1 years
类型 internet

技术详情

分类 Payload
质量 960.00 kg
干质量 910.00 kg
总质量 960.00 kg
长度 0.30 m
直径 4.10 m
跨度 29.00 m
形状 Box + pan
制造商 SPXS
平台类型 Starlink V2MD
阶段状态 In Orbit
所有者/国家 SPXS/US

Most Searched